Regional Weather Roundup
Issued by NWS Columbia, SC

Home | Current Version | Previous Version | Text Only | Print | Product List | Glossary On
Versions: 1 2 3 4 5 6 7 8 9 10 11 12 13 14 15 16 17 18 19 20 21 22 23 24 25 26 27 28 29 30 31 32 33 34 35 36 37 38 39 40 41 42 43 44 45 46 47 48 49 50
000
ASUS42 KCAE 241310
RWRCAE
REGIONAL WEATHER ROUNDUP
NATIONAL WEATHER SERVICE COLUMBIA SC
900 AM EDT TUE APR 24 2018

NOTE: "FAIR" INDICATES FEW OR NO CLOUDS BELOW 12,000 FEET WITH NO
SIGNIFICANT WEATHER AND/OR OBSTRUCTIONS TO VISIBILITY.

NOT ALL STATIONS ARE QUALITY CONTROLLED BY THE NATIONAL
WEATHER SERVICE. USE DATA WITH CAUTION...ESPECIALLY
DEWPOINT OBSERVATIONS.

SCZ001>056-GAZ040-063>065-077-241400-
...UPSTATE SOUTH CAROLINA...

CITY           SKY/WX    TMP DP  RH WIND       PRES   REMARKS
ANDERSON       CLOUDY    60  59  96 NE7       29.86F FOG
LIBERTY        CLOUDY    57  57 100 NE5       29.88S
SPARTANBURG    DRIZZLE   55  55 100 N5        29.89S
CLEMSON        LGT RAIN  57  56  96 E6        29.88F
GREENVILLE     LGT RAIN  57  57 100 NE14      29.89S FOG
GREENWOOD      FOG       61  61 100 CALM      29.88S VSB 1/2
GREER          CLOUDY    56  56 100 NE9       29.89F FOG
ROCK HILL      LGT RAIN  60  60 100 VRB3      29.91S FOG
CHESTER        CLOUDY    59  59 100 E7        29.90S FOG
LAURENS        CLOUDY    59  59 100 NE5       29.87S FOG


...CENTRAL SOUTH CAROLINA...

CITY           SKY/WX    TMP DP  RH WIND       PRES   REMARKS
COLUMBIA APT   FOG       66  66 100 E9        29.86S VSB 3/4
COLUMBIA OWENS CLOUDY    65  64  97 VRB3      29.88S
MCENTIRE ANGB  CLOUDY    64  63  94 SE5       29.89S FOG
ORANGEBURG     CLOUDY    66  65  96 S5        29.87S
SUMTER SHAW    CLOUDY    65  64  96 E6        29.86S
NEWBERRY       CLOUDY    63  63 100 SE3       29.90S FOG
AIKEN          CLOUDY    63  63 100 S5        29.90S FOG
BARNWELL       FAIR      66  61  82 S7        29.87S
MANNING        CLOUDY    61  61 100 CALM      29.88S FOG
CAMDEN         CLOUDY    64  63  94 E8        29.89S
LANCASTER      LGT RAIN  63  63 100 E10       29.90S
WINNSBORO      CLOUDY    63  63 100 SE5       29.88S FOG


...EASTERN AND COASTAL SOUTH CAROLINA...

CITY           SKY/WX    TMP DP  RH WIND       PRES   REMARKS
MYRTLE BEACH   PTSUNNY   65  63  93 S9        29.92R
N MYRTLE BCH   CLOUDY    64  63  96 S5        29.91R
CONWAY         CLOUDY    63  63 100 CALM      29.91R FOG
MARION         CLOUDY    63  61  94 E5        29.91S
HARTSVILLE     CLOUDY    61  61 100 E9        29.89F
FLORENCE       CLOUDY    66  63  90 E10       29.90S
DARLINGTON     CLOUDY    65  62  90 E12       29.90F
CHARLESTON APT FAIR      70  66  87 S10       29.88S
MOUNT PLEASANT FAIR      68  66  94 S5        29.89S
WALTERBORO     CLOUDY    66  64  94 S8        29.89S
BEAUFORT       PTSUNNY   69  65  86 S10       29.89


...EASTERN GEORGIA...

CITY           SKY/WX    TMP DP  RH WIND       PRES   REMARKS
AUGUSTA BUSH F CLOUDY    62  61  96 SW6       29.86S
AUGUSTA DANIEL CLOUDY    63  61  93 SW5       29.87S
THOMSON        CLOUDY    62  61  94 W3        29.91S
CLAXTON        FAIR      65  58  77 CALM      29.90S
SYLVANIA       FAIR      64  61  88 W5        29.89S
STATESBORO     CLOUDY    65  54  67 W6        29.90S
SAVANNAH       PTSUNNY   66  61  84 W7        29.90S


...SOUTHERN NORTH CAROLINA...

CITY           SKY/WX    TMP DP  RH WIND       PRES   REMARKS
CHARLOTTE      LGT RAIN  60  60 100 E10       29.91F FOG
MONROE         CLOUDY    60  60 100 VRB7      29.90F FOG
WADESBORO      CLOUDY    62  59  91 E7        29.92S
ROCKINGHAM     CLOUDY    62  62 100 E9        29.92S
RUTHERFORDTON  LGT RAIN  53  53 100 N3        29.93F
ASHEVILLE      LGT RAIN  52  51  97 W3        29.92S

$$



USA.gov is the U.S. government's official web portal to all federal, state and local government web resources and services.